Flag for U.S.A. Weather past 2 weeks in Simi Valley, California, U.S.A.

Now
79 °F

Sunny.


Feels Like: 79 °F
Forecast: 54 / 78 °F
Wind: 10 mph from Southeast

Location: Van Nuys Airport

Current Time: Mar 31, 2015 at 3:09:40 PM

Latest Report: Mar 31, 2015 at 1:51 PM


Visibility: 10 mi

Pressure: 29.94 "Hg

Humidity: 34%

Dew point: 48 °F

Location of Simi ValleyLocation

Historic Weather in Simi Valley — Graph

°F

Simi Valley temperature yesterday

Maximum temperature yesterday: 86 °F (at 2:51 PM)
Minimum temperature yesterday: 55 °F (at 4:51 AM)
Average temperature yesterday: 69 °F

Past Weeks' High & Low Weather Summary

 TemperatureHumidityPressure
High91 °F (Mar 26, 1:51 PM)93% (Mar 20, 5:51 AM)30.16 "Hg (Mar 20, 5:51 AM)
Low52 °F (Mar 23, 5:51 AM)11% (Mar 26, 1:51 PM)29.85 "Hg (Mar 16, 5:51 PM)
Average69 °F49%30.01 "Hg
* Reported Mar 16 1:51 PM — Mar 31 1:51 PM, Simi Valley, Weather by CustomWeather, © 2015

Note: Actual official high and low records may vary slightly from our data, if they occured in-between our weather recording intervals... More about our weather records

Advertising

Simi Valley weather history for previous 24 hours

 ConditionsComfort  
Time TempWeatherWind HumidityBarometerVisibility
1:51 PM
Tue, Mar 31
79 °FSunny.10 mph34%29.94 "Hg10 mi
12:51 PM78 °FSunny.9 mph39%29.96 "Hg8 mi
11:51 AM76 °FSunny.9 mph42%29.98 "Hg10 mi
10:51 AM71 °FSunny.No wind45%29.99 "Hg9 mi
9:51 AM66 °FSunny.3 mph61%30.00 "Hg7 mi
8:51 AM61 °FSunny.No wind70%29.98 "Hg7 mi
7:51 AM58 °FSunny.No wind78%29.97 "Hg10 mi
6:51 AM56 °FClear.No wind84%29.96 "Hg8 mi
5:51 AM56 °FClear.No wind81%29.95 "Hg10 mi
4:51 AM57 °FClear.No wind81%29.94 "Hg10 mi
3:51 AM58 °FClear.No wind81%29.95 "Hg10 mi
2:51 AM58 °FClear.No wind81%29.96 "Hg9 mi
1:51 AM59 °FClear.No wind81%29.97 "Hg9 mi
12:51 AM60 °FClear.No wind78%29.98 "Hg10 mi
11:51 PM
Mon, Mar 30
61 °FClear.3 mph75%29.98 "Hg10 mi
10:51 PM63 °FClear.5 mph70%29.98 "Hg10 mi
9:51 PM65 °FClear.6 mph63%29.97 "Hg10 mi
8:51 PM67 °FClear.7 mph63%29.96 "Hg10 mi
7:51 PM69 °FSunny.5 mph59%29.93 "Hg10 mi
6:51 PM75 °FSunny.8 mph45%29.91 "Hg10 mi
5:51 PM82 °FSunny.No wind33%29.91 "Hg10 mi
4:51 PM85 °FSunny.7 mph26%29.90 "Hg10 mi
3:51 PM85 °FSunny.8 mph24%29.91 "Hg10 mi
Weather by CustomWeather, © 2015

See weather overviewHow to use our weather pages